World > North America > United States > Vermont

Morrisville, Vermont Regional Weather

Lat: 44.56N, Lon: 72.6W
Wx Zone: VTZ006Web Search

Pass this page to a friend. Tell them to point their camera at the QR Code near the bottom of this page.

Feedback


°F Click to change Morrisville hourly weather to Imperial units.Click to change Morrisville hourly weather to Metric units. °C
Morrisville Weather Map
UTC Time: 4/16/2021, 00:31
Your Time:

Morrisville, VT Regional Weather

Expires:202104160100;;615148
ASUS41 KBTV 160011
RWRBTV
VERMONT REGIONAL WEATHER ROUNDUP
NATIONAL WEATHER SERVICE BURLINGTON VT
800 PM EDT THU APR 15 2021

NOTE: "FAIR" INDICATES FEW OR NO CLOUDS BELOW 12,000 FEET WITH NO 
SIGNIFICANT WEATHER AND/OR OBSTRUCTIONS TO VISIBILITY.

* THESE REPORTS ARE NOT UNDER NWS QUALITY CONTROL AND/OR DO NOT
  REPORT WEATHER SUCH AS PRECIPITATION AND FOG.


VTZ001>019-160100-
_____VERMONT_
  
CITY           SKY/WX    TMP DP  RH WIND       PRES   REMARKS
BURLINGTON     LGT RAIN  44  38  79 S7        29.72R                  
6HR MIN TEMP:  43; 6HR MAX TEMP:  49; 6HR PCP:  0.14;                

MONTPELIER     LGT RAIN  39  36  89 S12       29.79R WCI  32          
6HR MIN TEMP:  39; 6HR MAX TEMP:  45; 6HR PCP:  0.25;                

MORRISVILLE    LGT RAIN  41  38  89 S7        29.77R                  
6HR MIN TEMP:  41; 6HR MAX TEMP:  46; 6HR PCP:  0.22;                

ST. JOHNSBURY*   N/A     42  40  92 MISG      29.75S                  
6HR MIN TEMP:  42; 6HR MAX TEMP:  53; 6HR PCP:  0.28;                

LYNDONVILLE*   LGT RAIN  40  38  93 CALM      29.78S                  
6HR MIN TEMP:  40; 6HR MAX TEMP:  53;                                

MIDDLEBURY*    LGT RAIN  40  36  85 SE14G25   29.70R WCI  32          
6HR MIN TEMP:  40; 6HR MAX TEMP:  47; 6HR PCP:  0.15;                

RUTLAND*       LGT RAIN  39  37  92 SE8       29.75R                  
6HR MIN TEMP:  39; 6HR MAX TEMP:  48; 6HR PCP:  0.21;                

SPRINGFIELD    LGT RAIN  41  33  73 S6        29.78R                  
6HR MIN TEMP:  41; 6HR MAX TEMP:  47; 6HR PCP:  0.31;                

HIGHGATE*      RAIN      45  38  79 SE10      29.72R                  
6HR MIN TEMP:  45; 6HR MAX TEMP:  49;                                

NEWPORT*       LGT RAIN  42  40  92 S6        29.76S                  
6HR MIN TEMP:  42; 6HR MAX TEMP:  47;                                

LAKE EDEN*       N/A     39 N/A N/A SW3         N/A                   

_____LAKE CHAMPLAIN_
  
CITY           SKY/WX    TMP DP  RH WIND       PRES   REMARKS
COLCHESTER RF*   N/A     43  39  87 S18         N/A                   

$$


SKY/WX - Weather  TMP - Temperature  DP - Dew Point  RH - Relative Humidity
WIND - Wind Direction/Speed PRES - Barometric Pressure VSB - Visibility
WCI - Wind Chill Index E13G22 Wind - East Wind 13 mph/Gusts of 22 mph